FW4179 Weather Reports


time (UTC)temp
C
wind
direction
speed
KPH
gust
KPH
rain 1hr
cm
rain 24hr
cm
rain mn
cm
humidity
%
barometer
mb
20260905180058 34 78 0.0 9.7 0.00 0.00 0.00 65 1015.1
20260905174551 33 108 1.6 8.0 0.00 0.00 0.00 67 1015.2
20260905173056 33 82 0.0 6.4 0.00 0.00 0.00 67 1015.3
20260905171604 33 329 1.6 8.0 0.00 0.00 0.00 68 1015.6
20260905170058 33 0 0.0 4.8 0.00 0.00 0.00 66 1015.8
20260905164606 32 98 0.0 0.0 0.00 0.00 0.00 68 1015.9
20260905163101 32 0 0.0 6.4 0.00 0.00 0.00 69 1016.3
20260905161558 31 0 0.0 4.8 0.00 0.00 0.00 73 1016.3
20260905160111 30 0 0.0 4.8 0.00 0.00 0.00 73 1016.3
20260905154602 30 0 0.0 4.8 0.00 0.00 0.00 77 1016.3
20260905153058 30 286 1.6 4.8 0.00 0.00 0.00 77 1016.4
20260905151600 29 0 0.0 0.0 0.00 0.00 0.00 78 1016.3
20260905150054 28 279 1.6 6.4 0.00 0.00 0.00 79 1016.3
20260905144558 27 0 0.0 0.0 0.00 0.00 0.00 85 1016.5
20260905143100 26 0 0.0 0.0 0.00 0.00 0.00 88 1016.6
20260905141559 25 0 0.0 0.0 0.00 0.00 0.00 90 1016.6
20260905140107 24 0 0.0 0.0 0.00 0.00 0.00 95 1016.6
20260905134552 23 0 0.0 0.0 0.00 0.00 0.00 96 1016.7
20260905133106 23 0 0.0 0.0 0.00 0.00 0.00 97 1016.6
20260905131607 23 0 0.0 0.0 0.00 0.00 0.00 97 1016.7
20260905130058 22 0 0.0 0.0 0.00 0.00 0.00 98 1017.0
20260905124559 22 0 0.0 0.0 0.00 0.00 0.00 98 1017.0
20260905123050 22 0 0.0 0.0 0.00 0.00 0.00 99 1016.8
20260905121557 22 0 0.0 0.0 0.00 0.00 0.00 99 1016.6
20260905120108 22 0 0.0 0.0 0.00 0.00 0.00 99 1016.5
20260905114601 22 0 0.0 0.0 0.00 0.00 0.00 99 1016.3
20260905113052 22 0 0.0 0.0 0.00 0.00 0.00 99 1016.1
20260905111610 21 0 0.0 0.0 0.00 0.00 0.00 99 1016.0
20260905110100 21 0 0.0 0.0 0.00 0.00 0.00 99 1015.8
20260905104558 21 0 0.0 0.0 0.00 0.00 0.00 99 1015.7
20260905103059 21 0 0.0 0.0 0.00 0.00 0.00 98 1015.6
20260905101605 22 0 0.0 0.0 0.00 0.00 0.00 98 1015.5
20260905100100 22 0 0.0 0.0 0.00 0.00 0.00 98 1015.4
20260905094552 22 0 0.0 0.0 0.00 0.00 0.00 98 1015.2
20260905093058 22 0 0.0 0.0 0.00 0.00 0.00 98 1015.0
20260905091555 22 0 0.0 0.0 0.00 0.00 0.00 98 1015.0
20260905084611 22 0 0.0 0.0 0.00 0.00 0.00 98 1015.2
20260905083052 22 0 0.0 0.0 0.00 0.00 0.00 98 1015.3
20260905081555 22 0 0.0 0.0 0.00 0.00 0.00 98 1015.4
20260905080059 23 0 0.0 0.0 0.00 0.00 0.00 97 1015.4
20260905074559 23 0 0.0 0.0 0.00 0.00 0.00 96 1015.5
20260905073102 23 0 0.0 0.0 0.00 0.00 0.00 95 1015.5
20260905071557 23 0 0.0 0.0 0.00 0.00 0.00 96 1015.5
20260905070105 23 0 0.0 0.0 0.00 0.00 0.00 95 1015.5
20260905064555 23 0 0.0 0.0 0.00 0.00 0.00 96 1015.6
20260905063055 23 0 0.0 0.0 0.00 0.00 0.00 96 1015.7
20260905061556 23 0 0.0 0.0 0.00 0.00 0.00 95 1016.0
20260905060054 23 0 0.0 0.0 0.00 0.00 0.00 95 1016.0
20260905054555 23 0 0.0 0.0 0.00 0.00 0.00 94 1015.9
20260905053140 23 0 0.0 0.0 0.00 0.00 0.00 92 1015.9
20260905051555 24 0 0.0 0.0 0.00 0.00 0.00 92 1016.0
20260905050051 24 0 0.0 0.0 0.00 0.00 0.00 92 1016.0
20260905044601 25 0 0.0 0.0 0.00 0.00 0.00 92 1015.9
20260905043058 25 0 0.0 0.0 0.00 0.00 0.00 91 1016.0
20260905041556 25 0 0.0 0.0 0.00 0.00 0.00 90 1016.2
20260905040104 25 0 0.0 0.0 0.00 0.00 0.00 88 1016.2
20260905034557 25 0 0.0 0.0 0.00 0.00 0.00 87 1016.4
20260905033104 26 0 0.0 0.0 0.00 0.00 0.00 86 1016.4
20260905031600 26 0 0.0 0.0 0.00 0.00 0.00 85 1016.5
20260905030100 26 0 0.0 0.0 0.00 0.00 0.00 84 1016.7
20260905024621 26 0 0.0 4.8 0.00 0.00 0.00 83 1016.5
20260905023123 27 0 0.0 1.6 0.00 0.00 0.00 82 1016.6
20260905021602 27 0 0.0 1.6 0.00 0.00 0.00 82 1016.8
20260905020108 27 0 0.0 0.0 0.00 0.00 0.00 82 1016.7
20260905014616 27 0 0.0 0.0 0.00 0.00 0.00 82 1016.7
20260905013105 27 0 0.0 0.0 0.00 0.00 0.00 81 1016.7
20260905011606 27 0 0.0 0.0 0.00 0.00 0.00 80 1016.6
20260905010058 28 0 0.0 0.0 0.00 0.00 0.00 78 1016.6
20260905004602 28 0 0.0 0.0 0.00 0.00 0.00 76 1016.3
20260905003100 28 0 0.0 0.0 0.00 0.00 0.00 75 1016.1
20260905001557 29 0 0.0 0.0 0.00 0.00 0.00 76 1016.0
20260905000105 30 0 0.0 0.0 0.00 0.00 0.00 76 1016.2
20260904234558 31 0 0.0 0.0 0.00 0.00 0.00 72 1016.1
20260904233059 31 0 0.0 0.0 0.00 0.00 0.00 70 1015.9
20260904231559 32 0 0.0 3.2 0.00 0.00 0.00 68 1015.8
20260904230105 32 149 3.2 8.0 0.00 0.00 0.00 67 1015.7
20260904224605 32 147 4.8 9.7 0.00 0.00 0.00 63 1015.6
20260904223103 33 136 4.8 8.0 0.00 0.00 0.00 63 1015.5
20260904221606 33 140 6.4 12.9 0.00 0.00 0.00 61 1015.5
20260904220059 33 135 4.8 12.9 0.00 0.00 0.00 59 1015.6
20260904214557 34 147 3.2 12.9 0.00 0.00 0.00 58 1015.6
20260904213100 33 137 3.2 11.3 0.00 0.00 0.00 60 1015.4
20260904211603 33 131 6.4 14.5 0.00 0.00 0.00 60 1015.7
20260904210059 33 182 6.4 16.1 0.00 0.00 0.00 61 1015.8
20260904204557 32 107 4.8 14.5 0.00 0.00 0.00 60 1016.0
20260904203100 35 134 8.0 16.1 0.00 0.00 0.00 56 1016.2
20260904201633 36 0 0.0 4.8 0.00 0.00 0.00 52 1016.1
20260904200058 36 0 1.6 8.0 0.00 0.00 0.00 51 1016.0
20260904194609 36 0 0.0 6.4 0.00 0.00 0.00 51 1016.3
20260904193104 36 15 0.0 6.4 0.00 0.00 0.00 51 1016.6
20260904191559 36 338 0.0 6.4 0.00 0.00 0.00 53 1016.9
20260904190059 36 221 0.0 11.3 0.00 0.00 0.00 56 1016.9
20260904184601 35 269 3.2 9.7 0.00 0.00 0.00 55 1017.1
20260904183057 35 0 1.6 11.3 0.00 0.00 0.00 57 1017.3
20260904181556 35 0 1.6 9.7 0.00 0.00 0.00 55 1017.5